Content
SEND FEEDBACK

Daily
Averages
Monthly
Summary
Canada

VICTORIA, BRITISH COLUMBIA


Home > North America > Canada > British Columbia
Elevation: 62 feet     Latitude: 48 39N     Longitude: 123 26W

WEATHER
 
SELECT A DAY
Number of Records: 199,592;   Date Range: 1/1/95 - 11/26/14
 
SHARE

PRINT THIS DATA

[ ← Previous Day ]
WEATHER ALMANAC - FEBRUARY 25, 2013
[ Next Day → ]
[ °C ]   °F
Weather ElementAverageHighLow
Temperature43.3 °F50 °F (2:00 pm)33.8 °F (11:00 pm)
Dewpoint28.5 °F39.2 °F (1:00 am) (7:00 pm)
Humidity65.4 %87 % (1:00 am)38 % (4:00 pm)
Barometer26.12 in30.27 in (11:00 pm) (7:00 pm)
Wind Speed13.3 mph24.2 mph (12:00 pm)
Wind Gust35.7 mph (1:00 pm)
Weather ElementAverage
Visibility18.4 mi
Wind DirectionSW (230.6 °)

Weather ElementTotal
Precipitation---
Heating Degree Days23.1 (Base 65)
Averaged from 31 records on February 25, 2013
WEATHER CONDITIONS BREAKOUT
WIND DIRECTION BREAKOUT
WEATHER BY HOUR - FEBRUARY 25, 2013
[ °C ]   °F
Local TimeTemperatureDewpointHumidityBarometerVisibilityWind DirectionWind SpeedGust SpeedPrecipitationEventsConditions
1:00 AM42.8 °F39.2 °F87 %29.82 in5.0 miSE (130°)5.8 mphRainLight Rain
2:00 AM42.8 °F37.4 °F81 %29.82 in12.0 miSouth (170°)11.5 mphMostly Cloudy
3:00 AM41.0 °F37.4 °F87 %29.81 in12.0 miESE (120°)5.8 mphMostly Cloudy
3:21 AM42.8 °F0.0 °F12.0 miSSE (160°)8.1 mphRainLight Rain Showers
4:00 AM42.0 °F36.0 °F72 %29.79 in15.0 miSouth (190°)11.5 mphRainLight Rain Showers
4:00 AM41.0 °F35.6 °F81 %29.79 in15.0 miSouth (180°)11.5 mph19.6 mphRainLight Rain Showers
4:20 AM41.0 °F0.0 °F15.0 miSouth (170°)9.2 mphScattered Clouds
5:00 AM42.8 °F35.6 °F76 %29.80 in12.0 miSW (220°)17.3 mph32.2 mphRainLight Rain Showers
6:00 AM42.8 °F35.6 °F76 %29.82 in15.0 miSouth (180°)17.3 mph31.1 mphRainLight Rain Showers
7:00 AM42.8 °F35.6 °F76 %29.80 in15.0 miSSW (200°)17.3 mph28.8 mphRainLight Rain Showers
7:46 AM44.6 °F0.0 °F15.0 miWSW (240°)13.8 mph23.0 mphMostly Cloudy
8:00 AM44.6 °F33.8 °F66 %29.81 in15.0 miWSW (240°)12.7 mph19.6 mphMostly Cloudy
9:00 AM44.6 °F33.8 °F66 %29.86 in15.0 miWest (270°)20.7 mph29.9 mphOvercast
10:00 AM45.0 °F34.0 °F54 %29.91 in19.0 miWest (270°)15.0 mphPartly Cloudy
10:00 AM44.6 °F33.8 °F66 %29.91 in20.0 miWSW (250°)16.1 mph21.9 mphMostly Cloudy
11:00 AM46.4 °F32.0 °F57 %29.96 in20.0 miWest (260°)23.0 mph31.1 mphMostly Cloudy
12:00 PM48.2 °F32.0 °F54 %29.99 in20.0 miWest (260°)24.2 mph34.5 mphPartly Cloudy
1:00 PM48.2 °F30.2 °F50 %30.01 in20.0 miWest (260°)21.9 mph35.7 mphPartly Cloudy
2:00 PM50.0 °F32.0 °F50 %30.04 in20.0 miWest (260°)20.7 mph27.6 mphPartly Cloudy
3:00 PM48.2 °F30.2 °F50 %30.06 in20.0 miWest (260°)16.1 mph29.9 mphPartly Cloudy
4:00 PM48.0 °F30.0 °F38 %30.09 in19.0 miWSW (250°)17.3 mphScattered Clouds
4:00 PM48.2 °F30.2 °F50 %30.09 in20.0 miWest (260°)18.4 mphScattered Clouds
5:00 PM46.4 °F30.2 °F53 %30.12 in20.0 miWest (260°)13.8 mphScattered Clouds
6:00 PM44.6 °F30.2 °F57 %30.14 in20.0 miWSW (250°)8.1 mphPartly Cloudy
7:00 PM42.8 °F30.2 °F61 %30.18 in20.0 miWSW (250°)9.2 mphScattered Clouds
8:00 PM42.8 °F30.2 °F61 %30.20 in20.0 miWest (270°)10.4 mphScattered Clouds
9:00 PM41.0 °F30.2 °F65 %30.23 in20.0 miWest (270°)8.1 mphPartly Cloudy
9:29 PM35.6 °F0.0 °F30.0 miWest (260°)9.2 mphPartly Cloudy
10:00 PM36.0 °F30.0 °F71 %30.25 in28.0 miWest (270°)6.9 mphScattered Clouds
10:00 PM35.6 °F30.2 °F81 %30.25 in30.0 miWest (270°)6.9 mphPartly Cloudy
11:00 PM33.8 °F28.4 °F81 %30.27 in30.0 miWSW (250°)4.6 mphPartly Cloudy
Hourly data recorded from CYYJ, located miles away from Victoria, British Columbia







STORIES FROM OUR PARTNERS